Flag for Argentina Weather past 2 weeks in Tucumán, Tucumán, Argentina

Now
73 °F

Clear.


Feels Like: 77 °F
Forecast: 64 / 90 °F
Wind: No wind

Location: Tucuman Aerodrome

Current Time: Aug 21, 2014 at 11:17:08 AM

Latest Report: Aug 21, 2014 at 10:00 AM


Visibility: 2 mi

Pressure: 29.86 "Hg

Humidity: 57%

Dew point: 57 °F

Location of TucumánLocation

Historic Weather in Tucumán — Graph

°F

Tucumán temperature yesterday

Maximum temperature yesterday: 90 °F (at 5:00 PM)
Minimum temperature yesterday: 66 °F (at 11:00 PM)
Average temperature yesterday: 77 °F

Past Weeks' High & Low Weather Summary

 TemperatureHumidityPressure
High93 °F (Aug 19, 5:00 PM)94% (Aug 12, 9:00 PM)30.57 "Hg (Aug 12, 9:00 PM)
Low39 °F (Aug 14, 8:00 AM)24% (Aug 8, 4:00 PM)29.71 "Hg (Aug 6, 4:00 PM)
Average62 °F55%30.11 "Hg
* Reported Aug 6 10:00 AM — Aug 21 10:00 AM, Tucumán, Weather by CustomWeather, © 2014

Note: Actual official high and low records may vary slightly from our data, if they occured in-between our weather recording intervals... More about our weather records

Advertising

Tucumán weather history for previous 24 hours

 ConditionsComfort  
Time TempWeatherWind HumidityBarometerVisibility
10:00 AM
Aug 21
73 °FClear.No wind57%29.86 "Hg2 mi
9:00 AM64 °FClear.2 mph73%29.83 "Hg2 mi
8:00 AM61 °FClear.No wind77%29.83 "Hg2 mi
7:00 AM61 °FClear.2 mph72%29.77 "Hg3 mi
6:00 AM63 °FClear.7 mph68%29.74 "Hg3 mi
5:00 AM63 °FClear.2 mph68%29.74 "Hg3 mi
4:00 AM66 °FClear.No wind60%29.77 "Hg3 mi
3:00 AM66 °FClear.5 mph64%29.77 "Hg4 mi
2:00 AM66 °FClear.2 mph64%29.80 "Hg4 mi
1:00 AM68 °FClear.6 mph64%29.80 "Hg4 mi
12:00 AM72 °FClear.7 mph57%29.80 "Hg3 mi
11:00 PM
Aug 20
66 °FClear.7 mph73%29.80 "Hg3 mi
10:00 PM68 °FClear.8 mph73%29.80 "Hg2 mi
9:00 PM73 °FClear.5 mph74%29.80 "Hg2 mi
8:00 PM79 °FClear.3 mph51%29.77 "Hg2 mi
7:00 PM81 °FClear.5 mph48%29.77 "Hg1 mi
6:00 PM86 °FClear.12 mph38%29.74 "Hg1 mi
5:00 PM90 °FClear.14 mph36%29.74 "Hg2 mi
3:00 PM88 °FClear.12 mph38%29.80 "Hg3 mi
Weather by CustomWeather, © 2014

See weather overviewHow to use our weather pages